Hourly Data Report for August 01, 2020

ALGONQUIN PARK EAST GATE
ONTARIO
Current Station Operator: ECCC - MSC

45°32'00.000" N
78°16'00.000" W
397.00 m
6080192
71581
TNK

Download Data

Hourly Data (August 2020)
Hourly Data Report for August 1, 2020
TIME
LST
Temp Definition
°C
Dew Point Definition
°C
Rel Hum Definition
%
Precip. Amount Definition
mm

Wind Dir Definition
10's deg

Wind Spd Definition
km/h
Visibility Definition
km
Stn Press Definition
kPa
Hmdx Definition


Wind Chill Definition


Weather Definition


00:00 13.7 11.8 89 LegendMM   0   96.84     LegendNANA
01:00 12.8 11.1 89 LegendMM   0   96.85     LegendNANA
02:00 12.1 10.5 90 LegendMM   0   96.83     LegendNANA
03:00 11.6 10.2 91 LegendMM   0   96.82     LegendNANA
04:00 11.3 10.0 91 LegendMM   0   96.84     LegendNANA
05:00 10.7 9.3 91 LegendMM   0   96.86     LegendNANA
06:00 11.3 9.9 91 LegendMM   0   96.87     LegendNANA
07:00 15.4 13.1 86 LegendMM   0   96.89     LegendNANA
08:00 20.9 14.9 68 LegendMM   0   96.90 25   LegendNANA
09:00 23.6 14.2 56 LegendMM 22 4   96.91 27   LegendNANA
10:00 25.0 12.7 46 LegendMM 16 5   96.90 28   LegendNANA
11:00 26.1 10.4 37 LegendMM 25 4   96.86 28   LegendNANA
12:00 27.7 11.0 35 LegendMM 15 5   96.81 29   LegendNANA
13:00 27.5 10.1 34 LegendMM 26 5   96.77 29   LegendNANA
14:00 27.5 11.0 36 LegendMM 24 4   96.75 29   LegendNANA
15:00 27.8 10.0 33 LegendMM 26 4   96.70 29   LegendNANA
16:00 28.4 10.4 33 LegendMM 22 3   96.64 30   LegendNANA
17:00 26.5 12.2 41 LegendMM 6 2   96.61 29   LegendNANA
18:00 25.2 15.6 55 LegendMM   0   96.61 30   LegendNANA
19:00 23.2 17.5 70 LegendMM 0 1   96.61 29   LegendNANA
20:00 21.5 16.7 74 LegendMM 0 1   96.64 27   LegendNANA
21:00 20.1 16.3 79 LegendMM   0   96.67 25   LegendNANA
22:00 19.0 15.8 82 LegendMM   0   96.68     LegendNANA
23:00 18.8 15.8 83 LegendMM 11 1   96.66     LegendNANA

Notes on Data Quality.

Legend

  • E = Estimated
  • M = Missing
  • NA = Not Available*
  • [empty] = Indicates an unobserved value
Date modified: